CAPE
0 43 11 0 0 0 2 0 0 0 0 0 19 2 0 226 278 223 221 182 199 160 210 215 89 2 0 0 0 0 24 59 138 115 90 29 21 19 22 18 25 26 23 36
0 0 9 2 0 0 0 0 0 0 0 0 0 0 100 166 239 238 204 147 174 127 194 172 22 0 0 0 0 1 18 37 47 26 22 28 21 17 19 26 25 21 18 37
0 1 9 6 0 1 0 0 0 0 21 1 1 1 2 52 289 257 187 183 184 144 200 96 2 0 0 0 0 8 27 37 5 11 15 31 33 13 26 27 14 18 26 67
0 0 16 47 30 1 0 0 0 13 12 0 0 0 5 79 19 316 295 243 194 204 215 37 0 0 0 0 0 3 24 25 3 32 69 37 43 106 193 396 354 330 157 172
13 0 82 50 93 64 16 12 0 0 0 0 0 0 57 1 22 292 389 329 296 290 260 4 0 0 0 0 0 0 3 34 3 94 104 144 126 234 338 594 628 405 377 285
0 2 79 23 0 0 42 0 0 0 0 0 0 0 69 0 0 128 556 465 384 333 276 0 0 0 0 0 0 0 0 28 22 80 71 47 122 314 348 390 330 337 316 279
4 68 1 0 0 0 0 1 0 0 0 0 0 0 0 0 0 0 253 715 496 392 267 0 0 0 0 0 0 0 0 38 61 119 91 275 129 178 193 129 117 395 343 196
46 34 1 0 0 9 0 2 1 0 0 0 0 0 0 0 0 2 173 556 641 471 294 0 0 0 0 0 0 0 0 15 102 147 144 348 321 48 7 31 179 411 334 125
1 0 2 0 0 3 0 1 0 0 0 0 0 0 0 0 0 72 209 518 701 531 314 0 0 0 0 0 0 0 0 0 32 166 120 295 293 3 0 14 242 317 293 184
4 1 2 0 0 1 1 0 0 0 0 0 0 0 0 0 76 83 283 605 750 612 333 2 0 0 0 0 0 0 0 0 0 17 64 186 50 0 0 0 110 169 196 187
9 0 1 0 0 0 0 0 0 0 0 0 0 0 0 0 47 301 386 524 748 676 372 32 0 0 0 0 0 0 0 0 0 0 25 109 43 8 0 0 0 14 57 125
1 12 4 0 0 3 2 1 0 0 0 0 0 0 0 0 0 5 370 587 691 724 579 143 0 0 0 0 0 0 0 0 0 0 8 50 82 98 0 0 0 0 0 18
7 5 0 2 1 0 0 0 0 0 0 0 0 0 0 0 0 0 200 557 555 751 672 299 29 0 0 0 0 0 0 0 0 0 0 132 50 139 96 0 0 0 0 0
4 4 5 1 1 0 1 0 0 0 0 0 0 0 0 0 0 0 0 71 530 526 704 596 164 5 0 0 0 0 0 0 0 0 0 0 72 142 167 104 25 0 0 0
8 6 8 7 5 1 2 0 0 0 0 0 0 0 0 0 0 0 0 0 152 683 674 720 507 148 75 12 0 0 0 0 0 0 0 0 0 0 40 63 85 11 0 0
16 17 14 8 8 8 6 2 0 0 0 0 0 0 0 0 0 0 0 0 0 389 849 607 674 499 195 118 51 0 0 0 0 0 0 0 0 0 0 0 0 0 0 0
11 13 12 1 2 4 11 14 9 2 1 0 0 0 0 0 0 0 0 0 0 0 738 950 578 612 503 243 368 42 0 0 0 0 0 0 0 0 0 0 0 0 0 0
11 9 12 18 3 0 0 2 4 16 8 3 0 0 0 0 0 0 0 0 0 142 1335 1054 741 569 552 469 558 323 126 19 0 0 0 0 0 0 0 0 0 0 0 0
8 5 2 3 5 3 3 6 3 8 1 2 6 2 0 0 0 0 0 0 0 18 577 509 716 721 630 612 500 452 395 206 60 0 0 0 0 0 0 0 0 0 0 0
14 9 1 0 1 8 2 4 2 3 5 6 5 5 2 0 0 0 0 0 0 0 11 42 212 809 882 622 289 437 481 381 344 16 0 0 0 0 0 0 0 0 0 0
18 9 4 0 1 5 3 6 0 0 5 6 6 6 5 2 0 0 0 0 0 0 0 0 698 639 705 329 205 278 422 480 547 248 11 0 0 0 0 0 0 0 0 0
15 14 9 7 0 0 0 3 8 2 4 0 1 2 3 4 0 0 0 0 0 0 0 0 0 0 0 2 197 378 277 382 680 481 152 30 2 1 0 0 0 0 0 0
19 21 16 13 9 0 0 1 6 5 3 0 0 0 5 5 4 2 0 0 0 0 0 0 0 0 0 5 195 364 368 252 395 630 472 213 149 39 67 96 46 30 20 11
42 33 27 19 11 2 0 0 5 7 4 0 1 2 2 2 2 2 2 0 0 0 0 0 0 0 0 0 251 430 452 285 272 465 431 278 284 208 162 261 90 169 168 106
22 24 27 24 25 6 0 0 2 1 4 2 0 0 3 2 3 0 1 1 0 0 0 0 0 0 0 0 49 512 700 351 326 411 424 399 325 303 288 275 212 115 285 313
22 19 7 7 25 4 1 0 6 4 0 4 0 0 1 4 4 1 2 0 0 0 0 0 0 0 0 0 23 195 570 767 533 362 490 472 459 371 219 178 154 69 94 160
10 0 5 4 32 5 0 0 10 5 3 9 2 4 1 3 2 1 2 0 1 0 0 0 0 0 0 0 0 14 522 456 519 627 609 539 459 427 277 227 207 228 136 133
CIN
0 -33 -11 0 0 -1 -12 -7 0 0 0 0 -5 -1 0 -39 -55 -51 -62 -94 -92 -101 -88 -120 -156 -137 0 0 0 0 -184 -91 -16 -12 -2 -3 -2 -2 0 -2 -1 -5 -7 -2
0 0 -53 -21 0 0 0 0 0 0 0 0 0 0 -37 -60 -40 -44 -60 -74 -79 -87 -93 -131 -222 0 0 0 0 -235 -199 -130 -48 -46 -19 -12 -1 -4 -8 -6 -5 -2 -4 -6
0 -3 -20 -22 -3 -13 -2 0 0 0 -7 -9 -27 -10 -79 -133 -20 -19 -40 -38 -59 -77 -100 -153 -145 0 0 0 0 -315 -193 -149 -150 -71 -18 -23 -9 -2 -4 -2 -4 -2 -2 -5
-1 0 -10 -5 -13 -12 -3 0 -1 -16 -37 0 0 0 -71 -125 -45 -11 -20 -28 -54 -55 -71 -167 0 0 0 0 0 -263 -236 -169 -86 -36 -16 -17 -5 -5 -2 -3 -3 -2 -2 -10
-2 -5 -5 -20 -30 -2 -4 -94 0 0 0 0 0 0 -171 -49 -266 -126 -19 -32 -57 -60 -81 -182 0 0 0 0 0 0 -261 -178 -2 -21 -13 -4 -4 -2 -1 0 0 -2 -2 -1
-13 -60 -3 -11 0 0 -7 0 0 0 0 0 0 0 -167 0 0 -210 -10 -33 -64 -83 -103 0 0 0 0 0 0 0 -20 -192 -154 -71 -57 -41 -4 -1 -2 -2 -2 -12 -4 -2
-4 -14 0 0 0 0 0 -1 -1 0 0 0 0 0 0 0 0 0 -180 -40 -67 -94 -122 0 0 0 0 0 0 0 0 -192 -131 -84 -82 -9 -26 -7 -2 -2 -2 -6 -2 -1
-4 -22 0 0 0 -12 -1 -1 -1 -1 0 0 0 0 0 0 0 -204 -189 -100 -81 -103 -133 0 0 0 0 0 0 0 0 -220 -108 -95 -77 -24 -15 -74 -79 -39 -4 -2 -1 -3
0 0 0 -1 0 -2 0 -1 0 0 0 0 0 0 0 0 0 -246 -172 -92 -82 -95 -126 0 0 0 0 0 0 0 0 0 -175 -108 -101 -51 -47 -9 -14 -41 -20 -13 -11 -9
0 -1 -2 -1 -1 -2 -3 0 0 0 0 0 0 0 0 0 -265 -232 -144 -88 -81 -93 -137 -176 0 0 0 0 0 0 0 0 0 -179 -157 -102 -148 0 0 0 -88 -64 -44 -32
0 0 -2 0 -1 -1 -1 0 0 0 0 0 0 0 0 0 -216 -204 -175 -110 -88 -87 -115 -176 0 0 0 0 0 0 0 0 0 0 -224 -168 -182 -214 0 0 0 -86 -112 -81
0 0 -1 0 -1 -2 -2 -1 -1 0 0 0 0 0 0 0 0 -241 -215 -170 -93 -89 -104 -140 0 0 0 0 0 0 0 0 0 0 -283 -212 -185 -181 0 0 0 0 0 -55
-1 -2 0 -1 -2 0 -2 0 0 0 0 0 0 0 0 0 0 0 -254 -142 -186 -92 -93 -93 -171 0 0 0 0 0 0 0 0 0 0 -188 -223 -183 -236 0 0 0 0 0
-2 -2 -1 -4 -2 -1 -2 0 0 0 0 0 0 0 0 0 0 0 0 -384 -208 -148 -83 -90 -105 -153 0 0 0 0 0 0 0 0 0 0 -199 -189 -194 -275 -367 0 0 0
-1 -2 -2 -2 -2 -2 -1 -1 0 0 0 0 0 0 0 0 0 0 0 0 -421 -201 -165 -71 -82 -116 -150 -147 0 0 0 0 0 0 0 0 0 0 -132 -237 -277 -377 0 0
-2 -2 -2 -2 -2 -3 -3 -3 0 0 0 0 0 0 0 0 0 0 0 0 0 -343 -159 -124 -70 -81 -104 -131 -141 0 0 0 0 0 0 0 0 0 0 0 0 0 0 0
0 -1 -1 -3 -3 -2 -3 -2 -1 -1 -1 0 0 0 0 0 0 0 0 0 0 0 -275 -212 -138 -68 -67 -94 -120 -153 0 0 0 0 0 0 0 0 0 0 0 0 0 0
-2 -1 -2 -1 -5 -1 0 -1 -2 -1 -1 -1 0 0 0 0 0 0 0 0 0 -238 -91 -172 -218 -220 -74 -83 -87 -106 -132 -116 0 0 0 0 0 0 0 0 0 0 0 0
-2 -3 -2 -1 -2 -3 -1 -1 -1 -2 -2 -1 -1 -1 0 0 0 0 0 0 0 -110 -252 -344 -347 -354 -264 -140 -91 -99 -84 -101 -156 0 0 0 0 0 0 0 0 0 0 0
-1 -2 -2 0 -1 -1 -2 -2 -2 -1 -1 -1 -1 0 0 0 0 0 0 0 0 0 -72 -489 -510 -344 -314 -285 -304 -99 -95 -81 -76 -184 0 0 0 0 0 0 0 0 0 0
-1 -1 -1 0 -1 -1 -3 -1 -3 -2 -1 -1 0 -1 0 -1 0 0 0 0 0 0 0 0 -197 -251 -229 -272 -330 -251 -119 -111 -58 -92 -161 0 0 0 0 0 0 0 0 0
-1 -2 -1 -1 -1 0 0 -1 -2 -1 -1 0 -1 -1 -1 0 -1 0 0 0 0 0 0 0 0 0 0 -76 -497 -264 -202 -154 -60 -51 -115 -129 -82 -53 0 0 0 0 0 0
-2 -1 -2 -1 -1 -1 0 -1 -2 -2 -2 0 0 -1 -1 -1 -1 -1 0 0 0 0 0 0 0 0 0 -173 -490 -355 -255 -229 -138 -64 -83 -126 -128 -106 -111 -87 -124 -109 -70 -89
0 -1 -1 -1 -1 -1 0 0 0 -2 -2 -2 -2 -1 0 -1 0 -2 -3 0 0 0 0 0 0 0 0 -13 -344 -249 -235 -262 -213 -99 -104 -147 -142 -119 -113 -114 -147 -114 -89 -97
-1 -1 -1 -1 -2 -1 -1 0 -2 -1 -1 -2 0 -1 -1 -1 0 0 -1 -2 0 0 0 0 0 0 0 0 -360 -187 -118 -150 -109 -100 -149 -161 -214 -186 -217 -240 -215 -214 -186 -185
-1 -2 -2 -2 -2 -2 -1 0 -1 -2 -2 -1 -1 -1 0 -1 -1 0 0 -1 -1 0 0 0 0 0 0 0 -328 -222 -147 -114 -119 -193 -165 -202 -226 -255 -297 -281 -300 -343 -336 -268
-5 0 -2 -1 -3 -2 -1 -1 -2 -1 -2 -1 -1 -2 0 0 -1 0 0 -1 -2 -1 0 0 0 0 0 0 0 -223 -45 -135 -103 -94 -136 -148 -162 -199 -247 -249 -319 -310 -401 -356
Wind_Speed
28 30 44 46 47 41 42 38 35 19 23 8 5 11 14 13 4 6 11 14 14 15 16 15 16 15 16 15 15 15 15 12 14 16 17 17 17 18 20 21 21 12 9 10
34 31 35 50 52 47 38 38 29 22 21 20 19 12 10 15 10 2 12 15 15 17 16 16 16 16 17 16 18 19 17 15 16 18 19 18 17 14 19 20 20 8 10 8
38 34 34 39 52 46 42 41 33 23 10 11 11 13 14 16 18 16 5 12 15 16 16 16 17 17 18 18 20 20 19 18 18 20 20 19 20 19 20 16 17 20 14 7
30 34 42 23 25 39 38 33 34 28 15 16 18 18 17 15 22 22 7 7 14 13 13 17 17 18 18 18 22 22 21 20 22 22 22 23 22 22 20 12 8 11 12 7
26 31 23 22 17 23 36 22 20 22 20 20 22 23 18 16 18 20 5 4 12 12 13 18 19 19 18 18 22 23 23 22 25 24 23 24 23 22 21 20 20 20 22 16
31 31 31 21 20 20 18 26 18 18 20 21 22 27 18 19 19 18 15 1 10 12 13 20 21 21 19 20 22 24 24 25 26 24 24 24 23 22 22 22 22 22 22 21
32 31 18 16 17 22 32 23 16 16 17 18 22 23 22 20 20 23 22 11 5 10 13 20 22 24 21 20 23 25 25 26 27 25 25 24 23 23 23 22 23 21 20 20
30 30 21 16 16 25 18 15 14 14 16 17 18 21 20 20 20 21 23 24 4 12 13 19 22 24 24 23 25 26 25 25 26 26 25 23 23 23 23 23 23 24 26 27
26 11 13 5 9 11 12 13 13 15 15 17 18 18 18 19 19 19 21 17 4 10 12 16 20 22 24 23 24 26 26 25 25 25 25 24 24 24 24 24 25 25 25 26
24 10 6 4 9 12 13 14 14 15 15 16 17 17 17 17 17 18 18 18 4 8 12 16 19 21 20 23 25 25 25 25 25 24 25 25 25 25 24 25 24 26 27 26
23 17 17 12 12 14 15 16 16 16 17 16 17 17 17 16 16 17 19 19 12 5 11 17 20 22 22 21 24 24 25 24 25 25 26 26 27 26 25 25 25 25 25 27
23 22 23 21 19 16 17 19 18 19 19 18 18 18 18 17 17 19 19 21 21 23 8 17 19 22 23 23 24 23 23 24 24 25 26 27 27 26 20 22 24 18 16 20
21 23 23 24 21 20 21 21 21 21 20 21 19 19 19 19 18 19 17 18 24 26 29 10 16 23 23 23 24 22 22 21 23 25 23 27 27 27 26 25 23 24 21 17
19 20 23 23 26 26 23 22 22 22 21 21 21 21 21 20 20 20 20 20 22 26 24 10 16 19 21 24 22 21 20 19 21 23 20 24 25 26 24 21 23 24 27 10
18 19 22 24 24 24 24 24 24 24 23 23 23 24 23 23 23 23 22 23 24 27 30 16 13 16 19 20 20 21 17 18 19 14 21 18 21 24 24 21 18 19 18 9
17 17 19 21 24 25 25 26 27 26 26 26 26 26 26 26 26 25 24 24 24 25 26 31 24 13 16 19 17 17 18 19 15 15 14 12 16 15 18 20 16 16 15 14
17 17 19 20 22 23 25 25 26 28 28 28 28 28 29 28 28 26 26 26 27 28 29 30 32 27 13 16 15 15 14 16 17 17 11 13 12 11 10 11 12 12 12 10
19 20 22 22 23 23 24 25 26 28 29 31 32 32 31 30 30 30 29 29 29 28 25 26 28 29 30 15 16 15 12 12 14 15 13 11 9 12 11 11 10 10 9 6
21 22 23 23 22 22 23 24 26 27 29 30 31 33 34 33 33 32 31 31 30 29 27 28 31 33 34 31 16 17 16 14 12 13 13 10 9 11 11 11 11 10 8 7
21 22 24 24 22 22 22 22 24 26 28 29 30 32 34 35 34 34 33 33 32 32 28 30 32 33 36 37 34 19 18 17 16 14 14 12 10 10 10 10 10 9 8 9
21 22 24 24 23 23 23 24 24 26 26 27 29 31 34 36 37 37 37 36 32 29 29 30 27 27 30 33 37 33 19 19 18 17 17 19 16 13 12 11 11 11 10 11
21 22 24 24 25 25 26 26 26 27 27 27 28 30 32 34 36 37 38 38 37 34 32 30 29 30 32 34 34 29 21 20 20 19 19 18 21 19 16 14 14 13 13 13
22 23 24 25 25 26 27 27 27 29 30 31 32 32 32 33 35 37 39 37 37 35 35 35 34 32 33 35 36 37 31 23 21 20 20 20 19 21 19 19 17 16 15 16
23 23 24 25 26 27 28 29 28 29 30 32 33 34 34 35 35 36 39 42 43 43 43 41 39 38 35 34 34 37 38 31 27 23 21 21 22 21 21 19 20 17 20 20
23 24 24 25 26 27 28 28 29 30 32 33 34 35 35 35 36 39 40 42 45 45 43 42 41 39 37 36 36 37 34 31 28 26 24 25 24 22 20 24 21 24 20 19
24 24 25 25 25 27 28 29 29 30 32 34 35 36 37 37 38 38 39 41 44 45 45 44 42 39 37 38 35 37 39 37 31 29 27 24 24 25 24 24 27 26 23 21
22 22 25 27 25 28 28 30 30 31 31 34 36 37 39 39 39 39 39 39 40 40 42 41 42 41 38 37 39 39 35 37 37 34 33 36 32 28 28 25 25 27 26 24
Wind_Direction
240 235 218 217 215 217 218 227 234 238 245 255 277 285 266 246 213 120 110 114 112 117 115 111 111 103 103 98 95 95 89 55 60 72 82 81 84 102 118 127 164 251 285 8
230 240 231 217 217 218 221 223 233 242 245 250 261 283 272 237 231 208 114 116 115 119 117 115 111 110 107 102 104 108 98 71 80 84 92 84 74 63 105 118 112 287 269 338
224 227 218 217 212 215 219 220 226 232 250 254 261 261 258 248 236 240 100 114 119 119 118 115 113 113 111 108 113 112 104 92 91 95 88 94 99 93 102 76 95 117 113 306
222 218 210 221 224 214 216 223 225 238 260 255 255 252 259 258 237 236 271 100 118 112 112 117 113 114 112 108 121 121 111 104 111 111 110 115 113 119 114 61 356 267 247 331
214 206 202 212 216 209 212 220 237 242 254 253 250 246 248 259 253 251 271 87 112 110 111 120 120 117 114 110 121 127 121 116 128 117 113 122 128 128 114 110 121 178 182 225
220 210 204 218 231 224 215 221 244 250 250 252 246 232 239 260 253 250 258 2 108 111 111 127 128 124 118 117 125 131 127 131 138 129 125 124 134 136 136 129 129 123 173 196
220 214 230 248 245 222 220 229 250 252 250 248 241 246 249 257 252 246 241 261 91 110 118 130 132 134 129 123 132 137 131 133 138 130 130 116 124 124 132 138 121 153 165 183
224 221 227 266 234 218 224 235 248 249 248 248 252 251 255 256 255 247 241 236 116 117 119 130 135 138 139 133 137 140 135 132 136 133 143 125 127 137 140 136 134 140 125 122
217 234 239 269 220 229 239 242 254 251 252 254 253 257 259 256 258 250 243 246 144 121 119 128 136 139 142 138 138 140 139 136 136 137 152 132 142 141 140 146 138 138 138 141
218 236 243 255 250 247 247 254 261 261 260 258 255 258 262 264 261 253 250 244 215 130 124 129 139 142 139 140 143 139 138 139 140 139 148 143 152 152 152 151 151 143 134 146
225 241 239 269 268 257 252 260 265 269 268 265 262 263 267 269 269 263 251 247 248 218 134 135 139 147 146 142 145 142 143 143 145 149 155 152 166 164 167 163 160 160 156 141
234 244 247 253 261 261 261 263 269 270 266 272 270 270 272 270 276 268 261 250 247 241 155 146 144 148 151 150 151 147 147 149 151 153 156 160 166 169 215 198 193 208 209 184
256 261 256 257 258 264 266 265 269 268 270 268 274 274 275 272 278 273 274 262 249 244 236 160 150 155 152 154 155 154 153 150 154 161 152 166 164 164 159 200 213 211 217 226
263 274 263 263 263 264 266 268 268 266 270 273 274 276 277 276 276 276 274 272 264 251 249 233 165 161 158 158 155 156 157 156 158 162 155 165 165 166 160 151 155 161 189 270
279 274 274 275 272 269 270 272 267 266 270 273 274 273 277 277 275 276 278 275 273 257 250 249 187 173 167 164 161 161 156 159 163 154 165 158 163 170 167 161 154 156 151 136
289 285 283 284 279 279 273 271 268 269 270 272 274 273 273 274 274 275 277 275 274 268 261 252 252 196 182 175 170 166 166 166 161 162 162 164 165 163 165 168 160 160 160 160
295 291 295 294 292 288 283 279 276 273 273 272 273 275 273 272 272 274 277 277 275 271 267 259 254 255 209 193 190 181 175 172 171 171 167 170 173 176 177 173 169 167 168 172
315 308 306 302 299 294 291 292 285 285 279 277 273 271 272 271 270 272 276 278 277 274 277 271 260 262 254 223 206 201 202 191 183 181 176 175 183 180 181 183 185 184 184 215
318 314 317 310 308 303 300 300 298 294 288 285 278 272 270 272 273 273 275 276 274 271 277 275 270 261 254 252 226 211 221 214 208 200 193 191 190 183 188 187 189 191 201 204
329 326 325 322 321 309 305 306 304 301 300 294 288 280 275 272 272 272 273 271 272 270 282 279 274 264 256 251 255 234 223 227 224 226 228 229 222 209 200 203 200 209 228 234
315 323 326 324 321 310 308 304 303 306 305 304 298 291 282 276 272 268 268 268 271 278 284 277 277 270 267 257 256 254 236 232 233 229 237 243 244 233 227 228 225 231 241 240
303 311 319 323 323 320 319 310 310 306 306 309 306 303 294 285 279 275 271 269 271 274 275 275 275 276 272 268 259 258 241 242 244 235 234 239 246 245 241 231 238 236 243 251
302 308 308 315 319 319 323 321 317 312 310 311 307 303 302 292 285 278 271 272 272 270 272 272 275 278 276 267 261 258 259 249 240 233 236 236 243 242 243 249 244 247 250 253
312 309 305 313 316 318 318 321 318 318 316 316 313 309 303 298 294 286 281 273 271 269 266 266 267 271 274 269 264 261 259 260 249 248 239 247 248 248 243 247 251 252 264 266
316 315 319 318 314 318 319 318 317 318 317 318 318 317 308 301 297 292 286 279 271 269 266 264 264 266 267 266 263 263 266 262 259 258 253 256 257 255 250 256 255 264 262 256
321 317 317 319 324 321 320 319 319 317 316 315 318 322 316 310 301 298 290 282 275 268 265 263 262 262 263 263 264 263 262 263 267 261 259 256 260 263 257 260 267 266 266 266
336 339 328 321 330 324 324 318 320 319 317 316 317 320 320 317 311 304 299 291 281 270 266 263 262 261 263 266 262 264 268 264 265 265 264 265 267 267 267 267 270 272 272 271